IBX52 RJSS-RJOO

Flight info

Callsign IBX52
Flight time 1h 14m
Altitude 30000
Route RIKYU Y882 GYODA Y88 NAKTU Y12 KOHWA Y546 AGPUK MIRAI ABENO IKOMA
Aircraft CRJ7/M-SDFGIRWY/S

Departure

Time 2026-05-04 01:26
Airport Sendai Airport (RJSS)

Arrival

Time 2026-05-04 02:41
Airport Osaka Itami International Airport (RJOO)
Time Latitude Longitude Altitude Speed Heading
2026-05-04 01:19 38.13984 140.92963 11 ft 0 kts 83°
2026-05-04 01:21 38.13985 140.92971 11 ft 3 kts 76°
2026-05-04 01:21 38.14009 140.93009 11 ft 8 kts 43°
2026-05-04 01:21 38.14037 140.93066 11 ft 8 kts 81°
2026-05-04 01:22 38.14045 140.93138 11 ft 9 kts 83°
2026-05-04 01:22 38.14054 140.93223 11 ft 10 kts 77°
2026-05-04 01:22 38.14102 140.93279 11 ft 10 kts
2026-05-04 01:22 38.14131 140.93277 12 ft 0 kts 352°
2026-05-04 01:24 38.14144 140.93275 12 ft 5 kts 352°
2026-05-04 01:25 38.14187 140.93264 14 ft 7 kts 340°
2026-05-04 01:25 38.14220 140.93214 14 ft 8 kts 276°
2026-05-04 01:25 38.14203 140.93036 14 ft 46 kts 263°
2026-05-04 01:25 38.14126 140.92292 17 ft 121 kts 263°
2026-05-04 01:26 38.13990 140.91003 141 ft 167 kts 266°
2026-05-04 01:26 38.13858 140.89425 545 ft 199 kts 266°
2026-05-04 01:26 38.13732 140.87489 1006 ft 235 kts 266°
2026-05-04 01:26 38.13555 140.85357 1708 ft 247 kts 263°
2026-05-04 01:27 38.13125 140.83350 3103 ft 231 kts 243°
2026-05-04 01:27 38.12152 140.81749 4139 ft 234 kts 233°
2026-05-04 01:27 38.11038 140.80189 4801 ft 245 kts 233°
2026-05-04 01:27 38.09925 140.78496 5527 ft 252 kts 235°
2026-05-04 01:28 38.08883 140.76706 6498 ft 245 kts 236°
2026-05-04 01:28 38.07924 140.74999 7636 ft 237 kts 234°
2026-05-04 01:28 38.06930 140.73213 8091 ft 252 kts 234°
2026-05-04 01:28 38.05927 140.71395 8868 ft 259 kts 233°
2026-05-04 01:29 38.04811 140.69584 9685 ft 261 kts 230°
2026-05-04 01:29 38.03703 140.67721 10269 ft 272 kts 234°
2026-05-04 01:29 38.02631 140.65710 10994 ft 276 kts 232°
2026-05-04 01:29 38.01454 140.63777 11809 ft 278 kts 243°
2026-05-04 01:30 38.01851 140.61466 13097 ft 257 kts 282°
2026-05-04 01:30 38.02240 140.59529 14813 ft 205 kts 262°
2026-05-04 01:30 38.02188 140.57692 15273 ft 213 kts 259°
2026-05-04 01:30 38.02098 140.55704 15216 ft 242 kts 258°
2026-05-04 01:31 38.01952 140.53504 15522 ft 256 kts 258°
2026-05-04 01:31 38.01737 140.51195 15721 ft 268 kts 250°
2026-05-04 01:31 38.00797 140.49176 16005 ft 277 kts 225°
2026-05-04 01:31 37.99099 140.47891 16418 ft 295 kts 208°
2026-05-04 01:32 37.97098 140.47201 17091 ft 304 kts 199°
2026-05-04 01:32 37.94975 140.46824 17634 ft 308 kts 196°
2026-05-04 01:32 37.92821 140.46519 18140 ft 313 kts 195°
2026-05-04 01:32 37.90629 140.46346 18669 ft 320 kts 191°
2026-05-04 01:33 37.88415 140.46353 19161 ft 323 kts 191°
2026-05-04 01:33 37.86166 140.46287 19638 ft 325 kts 191°
2026-05-04 01:33 37.83893 140.46274 20132 ft 327 kts 191°
2026-05-04 01:33 37.81608 140.46257 20611 ft 330 kts 191°
2026-05-04 01:34 37.79305 140.46229 21072 ft 331 kts 191°
2026-05-04 01:34 37.77019 140.46049 21498 ft 322 kts 204°
2026-05-04 01:34 37.74995 140.45117 22208 ft 307 kts 208°
2026-05-04 01:34 37.72992 140.44075 22337 ft 317 kts 209°
2026-05-04 01:35 37.70941 140.42953 22623 ft 322 kts 210°
2026-05-04 01:35 37.68931 140.41753 23093 ft 317 kts 216°
2026-05-04 01:35 37.67062 140.40283 23424 ft 318 kts 217°
2026-05-04 01:35 37.65181 140.38732 23495 ft 327 kts 218°
2026-05-04 01:36 37.63249 140.37163 23815 ft 330 kts 216°
2026-05-04 01:36 37.61315 140.35735 24406 ft 325 kts 215°
2026-05-04 01:36 37.59331 140.34308 24664 ft 328 kts 215°
2026-05-04 01:36 37.57351 140.32889 25071 ft 328 kts 215°
2026-05-04 01:37 37.55345 140.31457 25323 ft 332 kts 215°
2026-05-04 01:37 37.53363 140.30021 25648 ft 331 kts 217°
2026-05-04 01:37 37.51378 140.28537 25920 ft 332 kts 216°
2026-05-04 01:37 37.49375 140.27017 25979 ft 339 kts 216°
2026-05-04 01:38 37.47372 140.25542 26679 ft 327 kts 216°
2026-05-04 01:38 37.45397 140.24114 27085 ft 325 kts 216°
2026-05-04 01:38 37.43429 140.22701 27396 ft 326 kts 216°
2026-05-04 01:38 37.41453 140.21298 27416 ft 334 kts 216°
2026-05-04 01:39 37.39449 140.19812 27629 ft 335 kts 217°
2026-05-04 01:39 37.37435 140.18322 27860 ft 337 kts 217°
2026-05-04 01:39 37.35375 140.16853 28134 ft 339 kts 217°
2026-05-04 01:39 37.33369 140.15356 28369 ft 340 kts 217°
2026-05-04 01:40 37.31314 140.13839 28627 ft 343 kts 217°
2026-05-04 01:40 37.29240 140.12366 29041 ft 339 kts 217°
2026-05-04 01:40 37.27211 140.10859 29383 ft 338 kts 218°
2026-05-04 01:40 37.25169 140.09345 29520 ft 343 kts 217°
2026-05-04 01:41 37.23078 140.07843 29576 ft 349 kts 216°
2026-05-04 01:41 37.18850 140.04699 29603 ft 360 kts 217°
2026-05-04 01:42 37.14413 140.01513 29633 ft 373 kts 216°
2026-05-04 01:42 37.09926 139.98168 29655 ft 384 kts 216°
2026-05-04 01:43 37.05277 139.94829 29630 ft 380 kts 218°
2026-05-04 01:43 37.00677 139.91602 29621 ft 375 kts 217°
2026-05-04 01:44 36.96207 139.88327 29657 ft 374 kts 213°
2026-05-04 01:44 36.92438 139.85785 29636 ft 372 kts 212°
2026-05-04 01:45 36.87867 139.82866 29642 ft 366 kts 216°
2026-05-04 01:45 36.81213 139.78292 29632 ft 358 kts 220°
2026-05-04 01:46 36.76844 139.75218 29629 ft 355 kts 220°
2026-05-04 01:46 36.72580 139.72150 29603 ft 356 kts 217°
2026-05-04 01:47 36.68369 139.68998 29644 ft 359 kts 210°
2026-05-04 01:47 36.66072 139.67812 29619 ft 346 kts 225°
2026-05-04 01:47 36.64430 139.65851 30214 ft 313 kts 219°
2026-05-04 01:48 36.62577 139.64465 30389 ft 317 kts 217°
2026-05-04 01:48 36.60591 139.63123 29966 ft 330 kts 216°
2026-05-04 01:48 36.58548 139.61747 29732 ft 337 kts 216°
2026-05-04 01:48 36.56494 139.60310 29665 ft 340 kts 217°
2026-05-04 01:49 36.54414 139.58781 29590 ft 353 kts 218°
2026-05-04 01:49 36.52289 139.57175 29639 ft 362 kts 218°
2026-05-04 01:49 36.50102 139.55522 29577 ft 374 kts 217°
2026-05-04 01:49 36.47872 139.53892 29656 ft 379 kts 217°
2026-05-04 01:50 36.45587 139.52229 29543 ft 382 kts 217°
2026-05-04 01:50 36.43290 139.50572 29561 ft 381 kts 217°
2026-05-04 01:50 36.40988 139.48927 29447 ft 383 kts 216°
2026-05-04 01:50 36.38674 139.47307 29582 ft 379 kts 216°
2026-05-04 01:51 36.34152 139.44052 29584 ft 376 kts 217°
2026-05-04 01:51 36.29633 139.40773 29551 ft 375 kts 217°
2026-05-04 01:52 36.27362 139.39132 29203 ft 380 kts 216°
2026-05-04 01:52 36.25110 139.37519 29534 ft 371 kts 216°
2026-05-04 01:52 36.20670 139.34309 29565 ft 366 kts 219°
2026-05-04 01:53 36.18816 139.32205 29476 ft 360 kts 232°
2026-05-04 01:53 36.17252 139.29805 29561 ft 356 kts 233°
2026-05-04 01:53 36.14271 139.24956 29566 ft 356 kts 236°
2026-05-04 01:54 36.11943 139.19528 29565 ft 358 kts 245°
2026-05-04 01:54 36.10035 139.13854 29641 ft 360 kts 245°
2026-05-04 01:55 36.07950 139.08185 29599 ft 363 kts 243°
2026-05-04 01:55 36.05825 139.02534 29560 ft 364 kts 244°
2026-05-04 01:56 36.03689 138.96831 29551 ft 365 kts 243°
2026-05-04 01:56 36.01561 138.91103 29367 ft 369 kts 244°
2026-05-04 01:57 36.00522 138.88277 29543 ft 364 kts 243°
2026-05-04 01:57 35.99448 138.85463 29655 ft 361 kts 243°
2026-05-04 01:57 35.98364 138.82672 29765 ft 359 kts 242°
2026-05-04 01:57 35.97285 138.79879 29734 ft 361 kts 243°
2026-05-04 01:58 35.95104 138.74218 29545 ft 368 kts 243°
2026-05-04 01:58 35.92933 138.68508 29549 ft 372 kts 243°
2026-05-04 01:59 35.90734 138.62701 29574 ft 373 kts 244°
2026-05-04 01:59 35.88520 138.56878 29643 ft 373 kts 243°
2026-05-04 02:00 35.86336 138.51073 29591 ft 375 kts 244°
2026-05-04 02:00 35.84152 138.45215 29572 ft 376 kts 244°
2026-05-04 02:01 35.81927 138.39373 29550 ft 377 kts 243°
2026-05-04 02:01 35.79708 138.33569 29636 ft 375 kts 243°
2026-05-04 02:02 35.77466 138.27768 29454 ft 376 kts 243°
2026-05-04 02:02 35.75258 138.22047 29731 ft 361 kts 243°
2026-05-04 02:03 35.73112 138.16463 29622 ft 365 kts 243°
2026-05-04 02:03 35.70919 138.10785 29641 ft 367 kts 243°
2026-05-04 02:04 35.68714 138.05144 29635 ft 369 kts 243°
2026-05-04 02:04 35.66491 137.99424 29620 ft 371 kts 244°
2026-05-04 02:05 35.64412 137.93614 29657 ft 371 kts 245°
2026-05-04 02:05 35.62387 137.87809 29655 ft 370 kts 244°
2026-05-04 02:06 35.60281 137.82052 29656 ft 368 kts 244°
2026-05-04 02:06 35.58143 137.76324 29660 ft 369 kts 243°
2026-05-04 02:07 35.55975 137.70625 29668 ft 367 kts 243°
2026-05-04 02:07 35.53819 137.64986 29606 ft 367 kts 243°
2026-05-04 02:08 35.52727 137.62147 29439 ft 368 kts 242°
2026-05-04 02:08 35.51642 137.59317 29564 ft 365 kts 243°
2026-05-04 02:08 35.49492 137.53679 29600 ft 365 kts 243°
2026-05-04 02:09 35.48152 137.51041 29573 ft 366 kts 231°
2026-05-04 02:09 35.46331 137.48847 29559 ft 368 kts 226°
2026-05-04 02:09 35.42568 137.44652 29626 ft 367 kts 226°
2026-05-04 02:10 35.38765 137.40475 29623 ft 373 kts 218°
2026-05-04 02:10 35.33955 137.37768 29547 ft 381 kts 212°
2026-05-04 02:11 35.29290 137.34904 29597 ft 374 kts 216°
2026-05-04 02:11 35.24748 137.31790 29568 ft 374 kts 216°
2026-05-04 02:12 35.20200 137.28682 29577 ft 374 kts 216°
2026-05-04 02:12 35.15614 137.25617 29469 ft 377 kts 216°
2026-05-04 02:13 35.13332 137.24095 29339 ft 379 kts 216°
2026-05-04 02:13 35.11014 137.22571 29358 ft 376 kts 215°
2026-05-04 02:13 35.06414 137.19599 29384 ft 371 kts 215°
2026-05-04 02:14 35.01889 137.16615 29329 ft 368 kts 216°
2026-05-04 02:14 34.97371 137.13658 28879 ft 369 kts 216°
2026-05-04 02:15 34.95116 137.12171 28323 ft 367 kts 215°
2026-05-04 02:15 34.92871 137.10704 27794 ft 366 kts 215°
2026-05-04 02:15 34.90638 137.09228 27240 ft 363 kts 216°
2026-05-04 02:15 34.88462 137.07782 26716 ft 360 kts 216°
2026-05-04 02:16 34.86272 137.06338 26239 ft 355 kts 215°
2026-05-04 02:16 34.84105 137.04905 25735 ft 353 kts 216°
2026-05-04 02:16 34.81952 137.03472 25272 ft 350 kts 215°
2026-05-04 02:16 34.79810 137.02073 24748 ft 349 kts 214°
2026-05-04 02:17 34.77672 137.00672 24287 ft 347 kts 214°
2026-05-04 02:17 34.75561 136.99278 23942 ft 342 kts 216°
2026-05-04 02:17 34.73615 136.97685 23596 ft 343 kts 224°
2026-05-04 02:17 34.71925 136.95599 23268 ft 346 kts 232°
2026-05-04 02:18 34.70500 136.93208 22902 ft 351 kts 236°
2026-05-04 02:18 34.69202 136.90670 22304 ft 358 kts 240°
2026-05-04 02:18 34.68101 136.87928 21536 ft 360 kts 245°
2026-05-04 02:18 34.67277 136.85150 20975 ft 348 kts 249°
2026-05-04 02:19 34.66576 136.82393 20471 ft 335 kts 250°
2026-05-04 02:19 34.65892 136.79737 19976 ft 324 kts 249°
2026-05-04 02:19 34.65186 136.77171 19506 ft 318 kts 248°
2026-05-04 02:19 34.64430 136.74657 18996 ft 316 kts 247°
2026-05-04 02:20 34.63670 136.72175 18602 ft 311 kts 247°
2026-05-04 02:20 34.62935 136.69706 18173 ft 309 kts 248°
2026-05-04 02:20 34.62221 136.67255 17637 ft 308 kts 248°
2026-05-04 02:20 34.61512 136.64795 17127 ft 307 kts 248°
2026-05-04 02:21 34.60790 136.62370 16731 ft 303 kts 248°
2026-05-04 02:21 34.60085 136.60014 16369 ft 299 kts 248°
2026-05-04 02:21 34.59383 136.57647 15999 ft 296 kts 248°
2026-05-04 02:21 34.58687 136.55296 15605 ft 295 kts 248°
2026-05-04 02:22 34.57996 136.52957 15217 ft 293 kts 248°
2026-05-04 02:22 34.57307 136.50629 14853 ft 294 kts 248°
2026-05-04 02:22 34.56608 136.48283 14506 ft 297 kts 248°
2026-05-04 02:22 34.55907 136.45903 14170 ft 299 kts 248°
2026-05-04 02:23 34.55219 136.43555 13920 ft 297 kts 248°
2026-05-04 02:23 34.54516 136.41190 13598 ft 298 kts 248°
2026-05-04 02:23 34.53812 136.38822 13228 ft 297 kts 249°
2026-05-04 02:23 34.53111 136.36463 12864 ft 295 kts 248°
2026-05-04 02:24 34.52406 136.34136 12476 ft 291 kts 248°
2026-05-04 02:24 34.51732 136.31830 12148 ft 286 kts 251°
2026-05-04 02:24 34.51301 136.29592 11795 ft 267 kts 257°
2026-05-04 02:24 34.51035 136.27430 11422 ft 252 kts 259°
2026-05-04 02:25 34.50823 136.25375 11054 ft 240 kts 260°
2026-05-04 02:25 34.50618 136.23402 10633 ft 232 kts 258°
2026-05-04 02:25 34.50385 136.21469 10349 ft 229 kts 258°
2026-05-04 02:25 34.50143 136.19594 10105 ft 226 kts 258°
2026-05-04 02:26 34.49894 136.17719 9866 ft 223 kts 258°
2026-05-04 02:26 34.49659 136.15855 9655 ft 224 kts 258°
2026-05-04 02:26 34.49395 136.13988 9464 ft 225 kts 258°
2026-05-04 02:26 34.49123 136.12130 9323 ft 224 kts 257°
2026-05-04 02:27 34.48854 136.10277 9201 ft 222 kts 258°
2026-05-04 02:27 34.48719 136.08423 8981 ft 224 kts 270°
2026-05-04 02:27 34.49002 136.06576 8718 ft 228 kts 278°
2026-05-04 02:27 34.49465 136.04714 8474 ft 232 kts 283°
2026-05-04 02:28 34.50037 136.02885 8228 ft 230 kts 284°
2026-05-04 02:28 34.50591 136.01065 7977 ft 229 kts 283°
2026-05-04 02:28 34.51130 135.99244 7700 ft 228 kts 283°
2026-05-04 02:28 34.51646 135.97443 7376 ft 223 kts 284°
2026-05-04 02:29 34.52138 135.95686 7156 ft 215 kts 283°
2026-05-04 02:29 34.52608 135.94012 7008 ft 207 kts 283°
2026-05-04 02:29 34.53066 135.92379 6793 ft 202 kts 283°
2026-05-04 02:29 34.53509 135.90793 6666 ft 196 kts 283°
2026-05-04 02:30 34.53944 135.89267 6423 ft 190 kts 283°
2026-05-04 02:30 34.54351 135.87807 6334 ft 179 kts 282°
2026-05-04 02:30 34.54734 135.86352 6193 ft 185 kts 283°
2026-05-04 02:30 34.55130 135.84857 6063 ft 186 kts 283°
2026-05-04 02:31 34.55527 135.83376 5877 ft 183 kts 283°
2026-05-04 02:31 34.55929 135.81922 5677 ft 180 kts 284°
2026-05-04 02:31 34.56333 135.80480 5489 ft 183 kts 284°
2026-05-04 02:31 34.56743 135.78993 5338 ft 188 kts 284°
2026-05-04 02:32 34.56877 135.78504 5294 ft 189 kts 284°
2026-05-04 02:32 34.57250 135.77154 5143 ft 189 kts 285°
2026-05-04 02:32 34.57682 135.75621 5006 ft 193 kts 285°
2026-05-04 02:32 34.58115 135.74070 4884 ft 194 kts 284°
2026-05-04 02:33 34.58541 135.72525 4752 ft 189 kts 285°
2026-05-04 02:33 34.58814 135.71551 4701 ft 173 kts 285°
2026-05-04 02:33 34.59181 135.70226 4526 ft 160 kts 285°
2026-05-04 02:33 34.59512 135.69006 4361 ft 145 kts 284°
2026-05-04 02:34 34.59934 135.67514 4020 ft 133 kts 285°
2026-05-04 02:34 34.60139 135.66819 3885 ft 128 kts 285°
2026-05-04 02:34 34.60518 135.65833 3720 ft 133 kts 297°
2026-05-04 02:34 34.61088 135.64925 3666 ft 137 kts 301°
2026-05-04 02:35 34.61714 135.64029 3730 ft 144 kts 303°
2026-05-04 02:35 34.62402 135.63091 3787 ft 154 kts 304°
2026-05-04 02:35 34.63165 135.62128 3812 ft 160 kts 308°
2026-05-04 02:35 34.63938 135.61203 3793 ft 149 kts 308°
2026-05-04 02:36 34.64654 135.60372 3636 ft 139 kts 308°
2026-05-04 02:36 34.65368 135.59553 3314 ft 142 kts 309°
2026-05-04 02:36 34.66081 135.58733 3048 ft 138 kts 308°
2026-05-04 02:36 34.66745 135.57924 2828 ft 135 kts 307°
2026-05-04 02:37 34.67394 135.57102 2687 ft 137 kts 306°
2026-05-04 02:37 34.68064 135.56262 2539 ft 140 kts 306°
2026-05-04 02:37 34.68752 135.55426 2429 ft 140 kts 307°
2026-05-04 02:37 34.69439 135.54605 2317 ft 136 kts 307°
2026-05-04 02:38 34.70118 135.53810 2105 ft 138 kts 307°
2026-05-04 02:38 34.70805 135.52980 1812 ft 140 kts 306°
2026-05-04 02:38 34.71491 135.52128 1554 ft 141 kts 306°
2026-05-04 02:38 34.72178 135.51277 1341 ft 143 kts 307°
2026-05-04 02:39 34.72872 135.50437 1129 ft 137 kts 307°
2026-05-04 02:39 34.73546 135.49635 987 ft 137 kts 307°
2026-05-04 02:39 34.74227 135.48799 859 ft 139 kts 309°
2026-05-04 02:39 34.74892 135.47977 742 ft 134 kts 308°
2026-05-04 02:40 34.75592 135.47126 547 ft 152 kts 309°
2026-05-04 02:40 34.76309 135.46264 362 ft 136 kts 311°
2026-05-04 02:40 34.76998 135.45446 157 ft 139 kts 311°
2026-05-04 02:40 34.77624 135.44697 45 ft 107 kts 313°
2026-05-04 02:41 34.77985 135.44257 48 ft 39 kts 315°
2026-05-04 02:41 34.78172 135.44063 47 ft 33 kts 329°
2026-05-04 02:41 34.78338 135.43994 46 ft 13 kts 355°
2026-05-04 02:41 34.78418 135.44004 47 ft 12 kts 15°
2026-05-04 02:42 34.78496 135.44051 47 ft 13 kts 37°
2026-05-04 02:42 34.78557 135.44121 47 ft 11 kts 45°
2026-05-04 02:42 34.78594 135.44167 45 ft 7 kts 45°
2026-05-04 02:42 34.78629 135.44217 46 ft 8 kts 64°
2026-05-04 02:43 34.78616 135.44278 46 ft 8 kts 134°
2026-05-04 02:43 34.78582 135.44320 44 ft 5 kts 135°
2026-05-04 02:43 34.78577 135.44351 47 ft 4 kts 63°
2026-05-04 02:43 34.78583 135.44370 43 ft 0 kts 107°
2026-05-04 02:44 34.78574 135.44394 47 ft 6 kts 114°
2026-05-04 02:44 34.78560 135.44432 47 ft 3 kts 114°
2026-05-04 02:44 34.78556 135.44444 47 ft 0 kts 114°